Location: Unspecified
(0.0000°N, 0.0000°E)
Time: 05:47:05
(UTC+00:00)

Vanguard 1 Rocket - Visible Passes

Search period start: 01 August 2015 00:00
Search period end: 11 August 2015 00:00
Orbit: 652 x 4226 km, 34.3° (Epoch: 31 July)

Date Brightness Start Highest point End Pass type
(mag) Time Alt. Az. Time Alt. Az. Time Alt. Az.
01 Aug 11.5 01:40:44 10° NW 01:55:29 22° N 02:13:10 10° NE visible
01 Aug 11.8 04:17:08 10° NW 04:37:08 27° NNE 04:54:46 10° ENE visible
01 Aug 8.3 19:30:08 10° SSW 19:36:18 49° SE 19:42:16 25° ENE visible
01 Aug 9.8 21:54:39 10° W 22:13:00 26° NNE 22:21:06 10° NE visible
02 Aug 11.1 00:30:06 18° NW 00:38:13 24° N 00:55:30 10° NE visible
02 Aug 11.7 03:01:41 10° NW 03:19:02 23° N 03:37:19 10° NE visible
02 Aug 11.4 05:35:20 10° NW 05:58:36 42° NNE 06:14:51 10° E visible
02 Aug 8.9 18:21:21 10° S 18:25:34 21° SE 18:31:56 10° E visible
02 Aug 8.7 20:43:40 10° WSW 20:51:08 69° NNW 21:06:10 10° NE visible
02 Aug 10.8 23:11:38 10° WNW 23:22:23 28° NNW 23:39:01 10° NE visible
03 Aug 11.6 01:46:16 10° NW 02:00:46 21° N 02:18:12 10° NE visible
03 Aug 11.7 04:20:27 10° NW 04:41:52 32° NNE 05:00:17 10° E visible
03 Aug 8.0 19:33:30 10° SW 19:39:37 71° SE 19:51:26 10° ENE visible
03 Aug 10.1 21:59:07 10° W 22:08:01 36° NNW 22:23:35 10° NE visible
04 Aug 11.3 00:31:12 10° NW 00:43:15 20° N 00:59:11 10° NE visible
04 Aug 11.7 03:05:48 10° NNW 03:24:08 25° NNE 03:43:19 10° ENE visible
04 Aug 11.2 05:38:02 10° NW 06:02:40 50° NNE 06:19:20 10° ESE visible
04 Aug 8.4 18:24:07 10° SSW 18:28:54 32° SE 18:36:34 10° ENE visible
04 Aug 9.2 20:47:40 10° WSW 20:54:58 50° NNW 21:08:55 10° NE visible
04 Aug 11.0 23:17:00 10° WNW 23:27:06 23° N 23:41:45 10° NNE visible
05 Aug 11.6 01:51:18 10° NW 02:06:02 21° N 02:23:56 10° NE visible
05 Aug 11.5 04:23:28 10° NW 04:46:18 38° NNE 05:05:23 10° E visible
05 Aug 8.1 19:37:05 10° WSW 19:43:07 81° NW 19:54:43 10° NE visible
05 Aug 10.5 22:03:56 10° WNW 22:12:25 27° NNW 22:26:00 10° NNE visible
06 Aug 11.4 00:36:52 10° NW 00:48:26 19° N 01:03:37 10° NE visible
06 Aug 11.7 03:09:24 10° NNW 03:28:58 29° NNE 03:49:09 10° ENE visible
06 Aug 11.0 05:40:45 10° NW 06:06:26 61° NNE 06:23:28 10° ESE visible
06 Aug 7.8 18:27:14 10° SW 18:32:14 49° SE 18:40:38 10° ENE visible
06 Aug 9.7 20:51:59 10° W 20:59:02 36° NNW 21:11:29 10° NE visible
06 Aug 11.2 23:22:42 10° NW 23:32:00 19° N 23:44:47 10° NNE visible
07 Aug 11.6 01:55:41 10° NNW 02:11:10 23° NNE 02:30:07 10° ENE visible
07 Aug 11.3 04:26:20 10° NW 04:50:25 46° NNE 05:10:06 10° E visible
07 Aug 8.6 19:40:56 10° WSW 19:46:50 55° NNW 19:57:42 10° NE visible
07 Aug 10.8 22:09:14 10° WNW 22:17:00 21° NNW 22:28:23 10° NNE visible
08 Aug 11.5 00:42:08 10° NNW 00:53:38 18° N 01:08:57 10° NE visible
08 Aug 11.5 03:12:38 10° NNW 03:33:29 34° NNE 03:54:37 10° E visible
08 Aug 10.8 05:43:31 10° NW 06:09:56 73° NE 06:27:20 10° ESE visible
08 Aug 7.5 18:30:38 10° SW 18:35:40 78° SE 18:44:16 10° ENE visible
08 Aug 10.1 20:56:43 10° WNW 21:03:19 26° NNW 21:13:52 10° NNE visible
08 Aug 11.3 23:28:34 10° NW 23:37:02 16° N 23:48:23 10° NNE visible
09 Aug 11.6 01:59:30 10° NNW 02:16:04 26° NNE 02:36:19 10° ENE visible
09 Aug 11.1 04:29:07 10° NW 04:54:13 55° NNE 05:14:26 10° ESE visible
09 Aug 9.2 19:45:07 10° W 19:50:47 37° NNW 20:00:26 10° NE visible
09 Aug 11.0 22:15:02 10° NW 22:21:45 16° N 22:30:47 10° NNE visible
10 Aug 11.5 00:46:47 10° NNW 00:58:45 19° NNE 01:15:03 10° NE visible
10 Aug 11.4 03:15:38 10° NW 03:37:39 41° NNE 03:59:39 10° E visible
10 Aug 7.9 18:34:20 10° WSW 18:39:16 66° NNW 18:47:33 10° NE visible
10 Aug 10.5 21:01:58 10° WNW 21:07:47 19° NNW 21:16:01 10° NNE visible
